Regional Weather Roundup
Issued by NWS Northern Indiana

Home | Current Version | Previous Version | Text Only | Print | Product List | Glossary On
Versions: 1 2 3 4 5 6 7 8 9 10 11 12 13 14 15 16 17 18 19 20 21 22 23 24 25 26 27 28 29 30 31 32 33 34 35 36 37 38 39 40 41 42 43 44 45 46 47 48 49 50
000
ASUS43 KIWX 021910
RWRIWX

KIWX WEATHER ROUNDUP
NATIONAL WEATHER SERVICE NORTHERN INDIANA
300 PM EDT TUE SEP 02 2014

NOTE: "FAIR" INDICATES FEW OR NO CLOUDS BELOW 12,000 FEET WITH NO
SIGNIFICANT WEATHER AND/OR OBSTRUCTIONS TO VISIBILITY.

* THESE STATIONS ARE NOT UNDER NWS QUALITY CONTROL. THEY ALSO MAY NOT
  REPORT WEATHER SUCH AS PRECIPITATION OR FOG.

INZ001>027-022000-
NORTHERN INDIANA

CITY           SKY/WX    TMP DP  RH WIND       PRES   REMARKS
GARY*          PTSUNNY   82  61  47 W12       29.90S
VALPARAISO     PTSUNNY   78  65  63 SW6       29.92S
MICHIGAN CITY* MOSUNNY   79  61  53 NW7       29.92R
LAPORTE*       PTSUNNY   77  64  63 SW8       29.92S
KNOX*          PTSUNNY   76  65  70 W3        29.91S
SOUTH BEND     MOSUNNY   79  65  62 SW12      29.92R
ELKHART*       MOSUNNY   77  64  65 SW8       29.92
GOSHEN         PTSUNNY   78  67  68 SW9       29.92R
MONTICELLO*    CLOUDY    76  68  76 W7        29.93S
LOGANSPORT*    PTSUNNY   77  66  69 SW12      29.95R
ROCHESTER*     PTSUNNY   79  66  65 W6        29.94R
WARSAW*        PTSUNNY   79  64  61 W9        29.92S
ANGOLA*        MOSUNNY   79  66  65 VRB6      29.91R
FORT WAYNE     PTSUNNY   75  69  81 SW9       29.93S
HUNTINGTON*    CLOUDY    74  68  81 W8        29.94R
PERU/GRISSOM   PTSUNNY   75  72  88 SW12      29.94R
MARION*        CLOUDY    75  66  72 W8        29.96S

$$
INZ028>050-022000-
CENTRAL INDIANA

CITY           SKY/WX    TMP DP  RH WIND       PRES   REMARKS
LAFAYETTE      CLOUDY    76  67  73 SW6       29.94R
KOKOMO*        PTSUNNY   75  66  73 W12       29.95R
MUNCIE*        CLOUDY    74  67  78 W9        29.96S
INDIANAPOLIS   CLOUDY    75  67  76 NW10      29.96S

$$
MIZ043>046-050>051-056>058-064>065-071>073-077>080-022000-
SOUTHWEST LOWER MICHIGAN

CITY           SKY/WX    TMP DP  RH WIND       PRES   REMARKS
BATTLE CREEK   MOSUNNY   78  61  55 W9        29.90S
BENTON HARBOR  MOSUNNY   77  64  64 W12       29.91R
COLDWATER*     PTSUNNY   76  64  65 NW7       29.90S
HILLSDALE*     PTSUNNY   75  68  80 W8G16     29.91R
HOLLAND        SUNNY     78  59  51 W10       29.91R
GRAND RAPIDS   PTSUNNY   79  59  50 W17G23    29.89R
KALAMAZOO      MOSUNNY   79  60  52 W10       29.90S
STURGIS*         N/A     75  64  69 W7        29.91R
THREE RIVERS*  FAIR      78  62  57 NW8       29.91R

$$
OHZ001>008-015>018-024>025-022000-
NORTHWEST OHIO

CITY           SKY/WX    TMP DP  RH WIND       PRES   REMARKS
WAUSEON*       FAIR      77  70  78 W10       29.89F
DEFIANCE       PTSUNNY   77  67  71 VRB7      29.90R
FINDLAY        CLOUDY    72  67  84 W13       29.92S
TOLEDO EXPRESS CLOUDY    75  68  78 SW8       29.86F
TOLEDO METCALF CLOUDY    74  68  81 W8        29.89F
LIMA           CLOUDY    73  67  81 W14       29.95R

$$
&&


USA.gov is the U.S. government's official web portal to all federal, state and local government web resources and services.